• In United Kingdom
  • List of Countries
  • For 7 days
  • Water Temperature
  • Satellite Maps
  • Weather Map
  • Weather Widgets
  • user-avatar
    Login

    Hourly Weather Mayrhofen

    Today, 25 November, Saturday

    Time Temperature Precipitation Wind Pressure Humidity
    00:00 -2°C° 0 mm 2 mps 615 mmHg 91%
    01:00 -1°C° 0 mm 3 mps 615 mmHg 90%
    02:00 -1°C° 0 mm 3 mps 614 mmHg 91%
    03:00 -2°C° 0 mm 3 mps 614 mmHg 92%
    04:00 -2°C° 0 mm 2 mps 613 mmHg 93%
    05:00 -2°C° 0 mm 3 mps 613 mmHg 93%
    06:00 -2°C° 0 mm 3 mps 612 mmHg 92%
    07:00 -2°C° 0 mm 3 mps 612 mmHg 92%
    08:00 -1°C° 0 mm 3 mps 611 mmHg 91%
    09:00 0°C° 0 mm 3 mps 611 mmHg 89%
    10:00 +1°C° 0 mm 3 mps 611 mmHg 88%
    11:00 +1°C° 0.2 mm 3 mps 611 mmHg 89%
    12:00 +2°C° 0.2 mm 2 mps 612 mmHg 90%
    13:00 +3°C° 0.2 mm 2 mps 612 mmHg 91%
    14:00 +2°C° 1.4 mm 2 mps 612 mmHg 93%
    15:00 +1°C° 1.4 mm 2 mps 612 mmHg 94%
    16:00 -1°C° 1.4 mm 2 mps 611 mmHg 96%
    17:00 -1°C° 1.2 mm 2 mps 611 mmHg 96%
    18:00 -2°C° 1.2 mm 2 mps 611 mmHg 96%
    19:00 -3°C° 1.2 mm 2 mps 611 mmHg 95%
    20:00 -3°C° 0.9 mm 2 mps 612 mmHg 95%
    21:00 -3°C° 0.9 mm 2 mps 612 mmHg 95%
    22:00 -5°C° 0.9 mm 3 mps 612 mmHg 95%
    23:00 -5°C° 0.7 mm 3 mps 612 mmHg 95%

    Tomorrow, 26 November, Sunday

    Time Temperature Precipitation Wind Pressure Humidity
    00:00 -6°C° 0.7 mm 3 mps 612 mmHg 95%
    01:00 -6°C° 0.7 mm 3 mps 612 mmHg 95%
    02:00 -7°C° 0.6 mm 3 mps 613 mmHg 95%
    03:00 -7°C° 0.6 mm 3 mps 613 mmHg 94%
    04:00 -7°C° 0.6 mm 3 mps 613 mmHg 94%
    05:00 -8°C° 0.5 mm 3 mps 613 mmHg 94%
    06:00 -8°C° 0.5 mm 3 mps 614 mmHg 93%
    07:00 -9°C° 0.5 mm 3 mps 614 mmHg 93%
    08:00 -9°C° 0.2 mm 3 mps 614 mmHg 91%
    09:00 -9°C° 0.2 mm 3 mps 615 mmHg 90%
    10:00 -9°C° 0.2 mm 3 mps 615 mmHg 88%
    11:00 -8°C° 0.1 mm 3 mps 615 mmHg 86%
    12:00 -8°C° 0.1 mm 3 mps 616 mmHg 83%
    13:00 -8°C° 0.1 mm 3 mps 616 mmHg 80%
    14:00 -9°C° 0 mm 3 mps 616 mmHg 83%
    15:00 -9°C° 0 mm 2 mps 616 mmHg 86%
    16:00 -9°C° 0 mm 2 mps 616 mmHg 88%
    17:00 -12°C° 0 mm 2 mps 616 mmHg 89%
    18:00 -13°C° 0 mm 2 mps 616 mmHg 91%
    19:00 -14°C° 0 mm 2 mps 616 mmHg 92%
    20:00 -14°C° 0 mm 2 mps 616 mmHg 92%
    21:00 -15°C° 0 mm 2 mps 616 mmHg 91%
    22:00 -15°C° 0 mm 2 mps 616 mmHg 91%
    23:00 -15°C° 0 mm 2 mps 616 mmHg 90%

    Day after tomorrow, 27 November, Monday

    Time Temperature Precipitation Wind Pressure Humidity
    00:00 -15°C° 0 mm 2 mps 616 mmHg 89%
    01:00 -15°C° 0 mm 2 mps 616 mmHg 89%
    02:00 -15°C° 0 mm 2 mps 616 mmHg 88%
    03:00 -15°C° 0 mm 2 mps 616 mmHg 88%
    04:00 -15°C° 0 mm 2 mps 616 mmHg 87%
    05:00 -15°C° 0 mm 2 mps 616 mmHg 88%
    06:00 -15°C° 0 mm 2 mps 616 mmHg 88%
    07:00 -15°C° 0 mm 2 mps 617 mmHg 88%
    08:00 -14°C° 0 mm 2 mps 617 mmHg 86%
    09:00 -12°C° 0 mm 2 mps 618 mmHg 84%
    10:00 -8°C° 0 mm 1 mps 619 mmHg 82%
    11:00 -7°C° 0 mm 1 mps 619 mmHg 79%
    12:00 -6°C° 0 mm 1 mps 619 mmHg 76%
    13:00 -4°C° 0 mm 1 mps 619 mmHg 72%
    14:00 -6°C° 0 mm 1 mps 618 mmHg 76%
    15:00 -7°C° 0 mm 1 mps 617 mmHg 81%
    16:00 -9°C° 0 mm 1 mps 616 mmHg 85%
    17:00 -10°C° 0 mm 1 mps 616 mmHg 82%
    18:00 -11°C° 0 mm 1 mps 616 mmHg 79%
    19:00 -11°C° 0 mm 1 mps 615 mmHg 76%
    20:00 -11°C° 0 mm 1 mps 615 mmHg 71%
    21:00 -11°C° 0 mm 1 mps 615 mmHg 67%
    22:00 -11°C° 0 mm 1 mps 615 mmHg 62%
    23:00 -11°C° 0 mm 1 mps 615 mmHg 61%

    28 November, Tuesday

    Time Temperature Precipitation Wind Pressure Humidity
    00:00 -12°C° 0 mm 2 mps 614 mmHg 60%
    01:00 -12°C° 0 mm 2 mps 614 mmHg 59%
    02:00 -12°C° 0 mm 2 mps 613 mmHg 60%
    03:00 -10°C° 0 mm 2 mps 613 mmHg 60%
    04:00 -10°C° 0 mm 2 mps 612 mmHg 60%
    05:00 -10°C° 0 mm 2 mps 612 mmHg 60%
    06:00 -10°C° 0 mm 2 mps 612 mmHg 60%
    07:00 -10°C° 0 mm 2 mps 611 mmHg 61%
    08:00 -8°C° 0 mm 2 mps 612 mmHg 62%
    09:00 -6°C° 0 mm 2 mps 612 mmHg 64%
    10:00 -5°C° 0 mm 2 mps 612 mmHg 65%
    11:00 -2°C° 0 mm 1 mps 612 mmHg 66%
    12:00 -1°C° 0 mm 1 mps 612 mmHg 66%
    13:00 0°C° 0 mm 1 mps 611 mmHg 66%
    14:00 -1°C° 0 mm 1 mps 611 mmHg 69%
    15:00 -2°C° 0 mm 1 mps 610 mmHg 73%
    16:00 -5°C° 0 mm 0 mps 609 mmHg 76%
    17:00 -6°C° 0 mm 0 mps 609 mmHg 77%
    18:00 -7°C° 0 mm 1 mps 608 mmHg 77%
    19:00 -8°C° 0 mm 1 mps 608 mmHg 78%
    20:00 -8°C° 0 mm 1 mps 608 mmHg 78%
    21:00 -8°C° 0 mm 1 mps 608 mmHg 78%
    22:00 -8°C° 0 mm 1 mps 608 mmHg 78%
    23:00 -8°C° 0 mm 1 mps 608 mmHg 78%

    29 November, Wednesday

    Time Temperature Precipitation Wind Pressure Humidity
    00:00 -8°C° 0 mm 1 mps 608 mmHg 79%
    01:00 -8°C° 0 mm 1 mps 608 mmHg 79%
    02:00 -8°C° 0 mm 1 mps 607 mmHg 80%
    03:00 -9°C° 0 mm 1 mps 607 mmHg 81%
    04:00 -9°C° 0 mm 1 mps 607 mmHg 82%
    05:00 -9°C° 0 mm 1 mps 606 mmHg 83%
    06:00 -9°C° 0 mm 1 mps 606 mmHg 84%
    07:00 -10°C° 0 mm 1 mps 606 mmHg 85%
    08:00 -8°C° 0 mm 1 mps 606 mmHg 84%
    09:00 -7°C° 0 mm 1 mps 607 mmHg 84%
    10:00 -6°C° 0 mm 1 mps 607 mmHg 83%
    11:00 -4°C° 0.1 mm 1 mps 607 mmHg 82%
    12:00 -3°C° 0.1 mm 1 mps 607 mmHg 80%
    13:00 -3°C° 0.1 mm 1 mps 607 mmHg 79%
    14:00 -3°C° 0.2 mm 1 mps 606 mmHg 83%
    15:00 -4°C° 0.2 mm 1 mps 606 mmHg 87%
    16:00 -4°C° 0.2 mm 1 mps 606 mmHg 92%
    17:00 -6°C° 0.3 mm 1 mps 606 mmHg 93%
    18:00 -6°C° 0.3 mm 1 mps 606 mmHg 93%
    19:00 -7°C° 0.3 mm 1 mps 606 mmHg 94%
    20:00 -7°C° 0.1 mm 1 mps 606 mmHg 94%
    21:00 -7°C° 0.1 mm 1 mps 606 mmHg 94%
    22:00 -8°C° 0.1 mm 1 mps 606 mmHg 94%
    23:00 -8°C° 0 mm 1 mps 605 mmHg 94%

    30 November, Thursday

    Time Temperature Precipitation Wind Pressure Humidity
    00:00 -10°C° 0 mm 2 mps 605 mmHg 93%
    01:00 -10°C° 0 mm 2 mps 604 mmHg 93%
    02:00 -12°C° 0 mm 2 mps 604 mmHg 93%
    03:00 -12°C° 0 mm 2 mps 604 mmHg 93%
    04:00 -13°C° 0 mm 2 mps 603 mmHg 92%
    05:00 -13°C° 0 mm 2 mps 603 mmHg 92%
    06:00 -13°C° 0 mm 2 mps 603 mmHg 92%
    07:00 -14°C° 0 mm 2 mps 603 mmHg 91%
    08:00 -13°C° 0 mm 2 mps 604 mmHg 88%
    09:00 -10°C° 0 mm 2 mps 604 mmHg 85%
    10:00 -8°C° 0 mm 1 mps 605 mmHg 81%
    11:00 -7°C° 0 mm 1 mps 605 mmHg 80%
    12:00 -6°C° 0 mm 1 mps 605 mmHg 79%
    13:00 -6°C° 0 mm 1 mps 605 mmHg 77%
    14:00 -6°C° 0 mm 1 mps 605 mmHg 81%
    15:00 -7°C° 0 mm 1 mps 605 mmHg 84%
    16:00 -8°C° 0 mm 1 mps 604 mmHg 88%
    17:00 -9°C° 0.1 mm 1 mps 604 mmHg 89%
    18:00 -10°C° 0.1 mm 1 mps 604 mmHg 91%
    19:00 -11°C° 0.1 mm 1 mps 604 mmHg 92%
    20:00 -11°C° 0 mm 1 mps 604 mmHg 92%
    21:00 -12°C° 0 mm 1 mps 604 mmHg 92%
    22:00 -12°C° 0 mm 1 mps 604 mmHg 92%
    23:00 -12°C° 0 mm 1 mps 604 mmHg 92%
    Show more